View from above orbital plane
|
View from above satellite
|
Ground track
|
The orbit data is extracted from the following two-line orbital elements,
1 43223U 18021A 20248.04061197 0.00000000 00000-0 00000-0 0 03
2 43223 97.3467 6.2431 0003000 357.1664 2.8334 15.27648775 05
Epoch (UTC): | 04 September 2020 00:58:28 |
Eccentricity: | 0.0003000 |
inclination: | 97.3467° |
perigee height: | 481 km |
apogee height: | 485 km |
right ascension of ascending node: | 6.2431° |
argument of perigee: | 357.1664° |
revolutions per day: | 15.27648775 |
mean anomaly at epoch: | 2.8334° |
orbit number at epoch: | 0 |
The dashed part of the orbit path shows where the satellite is in the earth's shadow,
|
|